| time (UTC) | temp F | wind direction | speed MPH | gust MPH | rain 1hr in | rain 24hr in | rain mn in | humidity % | barometer mb |
| 20260906014558 | 52 | 0 | 0.0 | 0.0 | 0.00 | 0.23 | 0.00 | 79 | 1013.7 |
| 20260906014058 | 52 | 0 | 0.0 | 0.0 | 0.00 | 0.23 | 0.00 | 78 | 1013.6 |
| 20260906013558 | 52 | 0 | 0.0 | 0.0 | 0.00 | 0.23 | 0.00 | 79 | 1014.6 |
| 20260906013058 | 52 | 0 | 0.0 | 0.0 | 0.00 | 0.23 | 0.00 | 79 | 1013.7 |
| 20260906012558 | 52 | 0 | 0.0 | 0.0 | 0.00 | 0.23 | 0.00 | 78 | 1013.7 |
| 20260906012058 | 52 | 0 | 0.0 | 0.0 | 0.00 | 0.23 | 0.00 | 77 | 1015.0 |
| 20260906011558 | 52 | 0 | 0.0 | 0.0 | 0.00 | 0.23 | 0.00 | 78 | 1013.6 |
| 20260906011058 | 52 | 0 | 0.0 | 0.0 | 0.00 | 0.23 | 0.00 | 77 | 1014.4 |
| 20260906010558 | 53 | 0 | 0.0 | 0.0 | 0.00 | 0.23 | 0.00 | 78 | 1013.6 |
| 20260906010058 | 53 | 0 | 0.0 | 0.0 | 0.00 | 0.23 | 0.00 | 78 | 1015.1 |
| 20260906005558 | 53 | 0 | 0.0 | 0.0 | 0.00 | 0.23 | 0.00 | 78 | 1013.6 |
| 20260906005058 | 53 | 0 | 0.0 | 0.0 | 0.00 | 0.23 | 0.00 | 77 | 1014.0 |
| 20260906004558 | 53 | 0 | 0.0 | 0.0 | 0.00 | 0.23 | 0.00 | 77 | 1013.6 |
| 20260906004058 | 53 | 0 | 0.0 | 0.0 | 0.00 | 0.23 | 0.00 | 77 | 1013.6 |
| 20260906003558 | 53 | 0 | 0.0 | 0.0 | 0.00 | 0.23 | 0.00 | 76 | 1013.7 |
| 20260906003058 | 53 | 0 | 0.0 | 0.0 | 0.00 | 0.23 | 0.00 | 77 | 1013.8 |
| 20260906002558 | 53 | 0 | 0.0 | 2.0 | 0.00 | 0.23 | 0.00 | 76 | 1014.4 |
| 20260906002058 | 53 | 0 | 0.0 | 2.0 | 0.00 | 0.23 | 0.00 | 76 | 1014.1 |
| 20260906001600 | 53 | 242 | 0.0 | 2.0 | 0.00 | 0.23 | 0.00 | 77 | 1013.7 |
| 20260906001058 | 53 | 0 | 0.0 | 0.0 | 0.00 | 0.23 | 0.00 | 76 | 1014.5 |
| 20260906000558 | 53 | 0 | 0.0 | 0.0 | 0.00 | 0.23 | 0.00 | 76 | 1014.3 |
| 20260906000059 | 53 | 0 | 0.0 | 0.0 | 0.00 | 0.23 | 0.00 | 76 | 1013.5 |
| 20260905235558 | 53 | 0 | 0.0 | 0.0 | 0.00 | 0.23 | 0.00 | 75 | 1013.5 |
| 20260905235057 | 53 | 0 | 0.0 | 0.0 | 0.00 | 0.23 | 0.00 | 75 | 1013.5 |
| 20260905234557 | 53 | 0 | 0.0 | 0.0 | 0.00 | 0.23 | 0.00 | 75 | 1014.0 |
| 20260905234058 | 53 | 0 | 0.0 | 0.0 | 0.02 | 0.23 | 0.00 | 75 | 1013.4 |
| 20260905233557 | 53 | 0 | 0.0 | 0.0 | 0.02 | 0.23 | 0.23 | 75 | 1014.3 |
| 20260905233057 | 53 | 0 | 0.0 | 0.0 | 0.03 | 0.23 | 0.23 | 75 | 1014.6 |
| 20260905232649 | 54 | 0 | 0.0 | 0.0 | 0.03 | 0.23 | 0.23 | 74 | 1014.1 |
| 20260905232557 | 54 | 0 | 0.0 | 0.0 | 0.03 | 0.23 | 0.23 | 74 | 1014.1 |
| 20260905232057 | 54 | 0 | 0.0 | 0.0 | 0.05 | 0.23 | 0.23 | 74 | 1013.8 |
| 20260905231557 | 54 | 0 | 0.0 | 0.0 | 0.05 | 0.23 | 0.23 | 74 | 1013.5 |
| 20260905231057 | 54 | 0 | 0.0 | 0.0 | 0.08 | 0.23 | 0.23 | 74 | 1014.8 |
| 20260905230557 | 53 | 0 | 0.0 | 0.0 | 0.08 | 0.23 | 0.23 | 74 | 1013.6 |
| 20260905230057 | 53 | 0 | 0.0 | 0.0 | 0.08 | 0.23 | 0.23 | 75 | 1014.2 |
| 20260905225557 | 53 | 0 | 0.0 | 0.0 | 0.08 | 0.23 | 0.23 | 75 | 1014.1 |
| 20260905225057 | 53 | 0 | 0.0 | 0.0 | 0.09 | 0.23 | 0.23 | 77 | 1014.1 |
| 20260905224557 | 52 | 0 | 0.0 | 0.0 | 0.09 | 0.23 | 0.23 | 76 | 1013.7 |
| 20260905224057 | 52 | 0 | 0.0 | 0.0 | 0.07 | 0.23 | 0.23 | 77 | 1013.7 |
| 20260905223557 | 52 | 0 | 0.0 | 0.0 | 0.07 | 0.22 | 0.22 | 77 | 1013.7 |
| 20260905223057 | 52 | 0 | 0.0 | 0.0 | 0.10 | 0.21 | 0.21 | 77 | 1013.8 |
| 20260905222557 | 52 | 0 | 0.0 | 0.0 | 0.10 | 0.20 | 0.20 | 76 | 1014.4 |
| 20260905222057 | 52 | 0 | 0.0 | 0.0 | 0.12 | 0.19 | 0.20 | 76 | 1014.0 |
| 20260905221557 | 52 | 0 | 0.0 | 0.0 | 0.12 | 0.18 | 0.18 | 76 | 1014.0 |
| 20260905221057 | 52 | 0 | 0.0 | 0.0 | 0.11 | 0.16 | 0.16 | 77 | 1015.6 |
| 20260905220557 | 52 | 0 | 0.0 | 0.0 | 0.11 | 0.15 | 0.15 | 77 | 1014.0 |
| 20260905220057 | 52 | 0 | 0.0 | 0.0 | 0.15 | 0.15 | 0.15 | 76 | 1014.0 |
| 20260905215557 | 52 | 0 | 0.0 | 0.0 | 0.15 | 0.15 | 0.15 | 76 | 1015.2 |
| 20260905215057 | 52 | 0 | 0.0 | 0.0 | 0.14 | 0.15 | 0.15 | 76 | 1014.6 |
| 20260905214557 | 52 | 0 | 0.0 | 0.0 | 0.14 | 0.14 | 0.14 | 76 | 1015.3 |
| 20260905214057 | 52 | 0 | 0.0 | 0.0 | 0.14 | 0.14 | 0.14 | 76 | 1014.0 |
| 20260905213557 | 52 | 0 | 0.0 | 0.0 | 0.14 | 0.14 | 0.14 | 77 | 1014.4 |
| 20260905213057 | 52 | 0 | 0.0 | 0.0 | 0.10 | 0.12 | 0.12 | 76 | 1014.0 |
| 20260905212557 | 51 | 0 | 0.0 | 0.0 | 0.10 | 0.11 | 0.11 | 76 | 1014.1 |
| 20260905212058 | 52 | 0 | 0.0 | 0.0 | 0.06 | 0.07 | 0.07 | 75 | 1014.1 |
| 20260905211558 | 52 | 0 | 0.0 | 0.0 | 0.06 | 0.06 | 0.06 | 76 | 1014.7 |
| 20260905211057 | 52 | 0 | 0.0 | 0.0 | 0.04 | 0.05 | 0.05 | 76 | 1014.6 |
| 20260905210557 | 52 | 0 | 0.0 | 0.0 | 0.04 | 0.04 | 0.04 | 75 | 1014.4 |
| 20260905210057 | 52 | 0 | 0.0 | 0.0 | 0.00 | 0.01 | 0.01 | 77 | 1014.1 |
| 20260905205557 | 52 | 0 | 0.0 | 0.0 | 0.00 | 0.00 | 0.00 | 77 | 1014.1 |
| 20260905205057 | 52 | 0 | 0.0 | 0.0 | 0.00 | 0.00 | 0.00 | 78 | 1014.1 |
| 20260905204557 | 52 | 0 | 0.0 | 0.0 | 0.00 | 0.00 | 0.00 | 78 | 1014.1 |
| 20260905204057 | 53 | 0 | 0.0 | 0.0 | 0.00 | 0.00 | 0.00 | 77 | 1014.1 |
| 20260905203557 | 53 | 0 | 0.0 | 0.0 | 0.00 | 0.00 | 0.00 | 77 | 1014.0 |
| 20260905203057 | 53 | 0 | 0.0 | 0.0 | 0.00 | 0.00 | 0.00 | 77 | 1014.4 |
| 20260905202557 | 53 | 0 | 0.0 | 0.0 | 0.00 | 0.00 | 0.00 | 77 | 1014.0 |
| 20260905202057 | 53 | 0 | 0.0 | 0.0 | 0.00 | 0.00 | 0.00 | 76 | 1014.7 |
| 20260905201557 | 54 | 0 | 0.0 | 0.0 | 0.00 | 0.00 | 0.00 | 77 | 1014.3 |
| 20260905201057 | 54 | 0 | 0.0 | 0.0 | 0.00 | 0.00 | 0.00 | 77 | 1015.4 |
| 20260905200557 | 54 | 0 | 0.0 | 0.0 | 0.00 | 0.00 | 0.00 | 76 | 1014.4 |
| 20260905200057 | 54 | 7 | 0.0 | 0.0 | 0.00 | 0.00 | 0.00 | 77 | 1014.0 |
| 20260905195557 | 54 | 0 | 0.0 | 0.0 | 0.00 | 0.00 | 0.00 | 78 | 1014.0 |
| 20260905195057 | 53 | 0 | 0.0 | 0.0 | 0.00 | 0.00 | 0.00 | 78 | 1014.1 |
| 20260905194557 | 53 | 0 | 0.0 | 0.0 | 0.00 | 0.00 | 0.00 | 78 | 1014.0 |
| 20260905194057 | 53 | 0 | 0.0 | 0.0 | 0.00 | 0.00 | 0.00 | 78 | 1014.1 |
| 20260905193557 | 52 | 0 | 0.0 | 1.0 | 0.00 | 0.00 | 0.00 | 78 | 1014.5 |
| 20260905193057 | 52 | 0 | 0.0 | 1.0 | 0.00 | 0.00 | 0.00 | 79 | 1014.7 |
| 20260905192648 | 52 | 116 | 0.0 | 1.0 | 0.00 | 0.00 | 0.00 | 79 | 1014.2 |
| 20260905192557 | 52 | 116 | 0.0 | 1.0 | 0.00 | 0.00 | 0.00 | 79 | 1014.2 |
| 20260905192057 | 52 | 0 | 0.0 | 0.0 | 0.00 | 0.00 | 0.00 | 80 | 1014.7 |
| 20260905191557 | 52 | 0 | 0.0 | 0.0 | 0.00 | 0.00 | 0.00 | 80 | 1014.1 |
| 20260905191057 | 51 | 0 | 0.0 | 0.0 | 0.00 | 0.00 | 0.00 | 80 | 1015.6 |
| 20260905190557 | 51 | 0 | 0.0 | 0.0 | 0.00 | 0.00 | 0.00 | 80 | 1014.1 |
| 20260905190057 | 51 | 0 | 0.0 | 0.0 | 0.00 | 0.00 | 0.00 | 80 | 1015.1 |
| 20260905185557 | 51 | 0 | 0.0 | 0.0 | 0.00 | 0.00 | 0.00 | 80 | 1014.3 |
| 20260905185057 | 51 | 0 | 0.0 | 0.0 | 0.00 | 0.00 | 0.00 | 80 | 1014.4 |
| 20260905184557 | 51 | 0 | 0.0 | 0.0 | 0.00 | 0.00 | 0.00 | 80 | 1014.6 |
| 20260905184057 | 51 | 0 | 0.0 | 0.0 | 0.00 | 0.00 | 0.00 | 80 | 1014.0 |
| 20260905183557 | 51 | 0 | 0.0 | 0.0 | 0.00 | 0.00 | 0.00 | 80 | 1014.1 |
| 20260905183057 | 50 | 0 | 0.0 | 0.0 | 0.00 | 0.00 | 0.00 | 80 | 1015.0 |
| 20260905182557 | 50 | 0 | 0.0 | 0.0 | 0.00 | 0.00 | 0.00 | 80 | 1014.0 |
| 20260905182057 | 50 | 0 | 0.0 | 0.0 | 0.00 | 0.00 | 0.00 | 80 | 1014.0 |
| 20260905181557 | 50 | 0 | 0.0 | 0.0 | 0.00 | 0.00 | 0.00 | 80 | 1014.1 |
| 20260905181057 | 50 | 0 | 0.0 | 0.0 | 0.00 | 0.00 | 0.00 | 80 | 1014.6 |
| 20260905180557 | 50 | 0 | 0.0 | 0.0 | 0.00 | 0.00 | 0.00 | 80 | 1014.0 |
| 20260905180057 | 50 | 0 | 0.0 | 0.0 | 0.00 | 0.00 | 0.00 | 80 | 1015.9 |
| 20260905175557 | 50 | 0 | 0.0 | 0.0 | 0.00 | 0.00 | 0.00 | 80 | 1014.1 |
| 20260905175057 | 50 | 0 | 0.0 | 0.0 | 0.00 | 0.00 | 0.00 | 80 | 1015.1 |
| 20260905174557 | 50 | 0 | 0.0 | 0.0 | 0.00 | 0.00 | 0.00 | 80 | 1014.3 |
| 20260905174057 | 50 | 0 | 0.0 | 0.0 | 0.00 | 0.00 | 0.00 | 80 | 1014.6 |
| 20260905173557 | 50 | 0 | 0.0 | 0.0 | 0.00 | 0.00 | 0.00 | 79 | 1014.2 |
| 20260905173057 | 50 | 0 | 0.0 | 0.0 | 0.00 | 0.00 | 0.00 | 80 | 1014.8 |
| 20260905172557 | 50 | 0 | 0.0 | 0.0 | 0.00 | 0.00 | 0.00 | 80 | 1013.8 |
| 20260905172057 | 50 | 0 | 0.0 | 0.0 | 0.00 | 0.00 | 0.00 | 80 | 1014.3 |
| 20260905171557 | 50 | 0 | 0.0 | 0.0 | 0.00 | 0.00 | 0.00 | 80 | 1014.2 |
| 20260905171057 | 50 | 0 | 0.0 | 0.0 | 0.00 | 0.00 | 0.00 | 80 | 1014.5 |
| 20260905170557 | 50 | 0 | 0.0 | 0.0 | 0.00 | 0.00 | 0.00 | 80 | 1013.6 |
| 20260905170057 | 50 | 0 | 0.0 | 0.0 | 0.00 | 0.00 | 0.00 | 80 | 1015.3 |
| 20260905165557 | 50 | 0 | 0.0 | 0.0 | 0.00 | 0.00 | 0.00 | 79 | 1014.0 |
| 20260905165057 | 50 | 116 | 0.0 | 0.0 | 0.00 | 0.00 | 0.00 | 80 | 1014.6 |
| 20260905164557 | 50 | 0 | 0.0 | 0.0 | 0.00 | 0.00 | 0.00 | 80 | 1014.0 |
| 20260905164057 | 50 | 116 | 0.0 | 0.0 | 0.00 | 0.00 | 0.00 | 80 | 1013.5 |
| 20260905163557 | 50 | 0 | 0.0 | 0.0 | 0.00 | 0.00 | 0.00 | 80 | 1013.7 |
| 20260905163057 | 50 | 0 | 0.0 | 0.0 | 0.00 | 0.00 | 0.00 | 80 | 1013.4 |
| 20260905162557 | 50 | 0 | 0.0 | 0.0 | 0.00 | 0.00 | 0.00 | 81 | 1013.4 |
| 20260905162057 | 50 | 0 | 0.0 | 0.0 | 0.00 | 0.00 | 0.00 | 81 | 1013.4 |
| 20260905161557 | 49 | 0 | 0.0 | 0.0 | 0.00 | 0.00 | 0.00 | 81 | 1013.5 |
| 20260905161057 | 49 | 0 | 0.0 | 0.0 | 0.00 | 0.00 | 0.00 | 81 | 1014.1 |
| 20260905160557 | 49 | 0 | 0.0 | 0.0 | 0.00 | 0.00 | 0.00 | 81 | 1013.5 |
| 20260905160057 | 49 | 0 | 0.0 | 0.0 | 0.00 | 0.00 | 0.00 | 80 | 1014.1 |
| 20260905155557 | 49 | 0 | 0.0 | 0.0 | 0.00 | 0.00 | 0.00 | 81 | 1013.5 |
| 20260905155057 | 49 | 0 | 0.0 | 0.0 | 0.00 | 0.00 | 0.00 | 80 | 1013.5 |
| 20260905154557 | 49 | 0 | 0.0 | 0.0 | 0.00 | 0.00 | 0.00 | 80 | 1013.5 |
| 20260905154057 | 49 | 0 | 0.0 | 1.0 | 0.00 | 0.00 | 0.00 | 80 | 1013.5 |
| 20260905153557 | 49 | 0 | 0.0 | 1.0 | 0.00 | 0.00 | 0.00 | 80 | 1013.6 |
| 20260905153057 | 49 | 116 | 0.0 | 1.0 | 0.00 | 0.00 | 0.00 | 80 | 1013.6 |
| 20260905152557 | 49 | 0 | 0.0 | 0.0 | 0.00 | 0.00 | 0.00 | 80 | 1013.6 |
| 20260905152057 | 49 | 0 | 0.0 | 0.0 | 0.00 | 0.00 | 0.00 | 81 | 1014.2 |
| 20260905151557 | 49 | 116 | 0.0 | 0.0 | 0.00 | 0.00 | 0.00 | 81 | 1014.0 |
| 20260905151057 | 48 | 0 | 0.0 | 0.0 | 0.00 | 0.00 | 0.00 | 81 | 1014.2 |
| 20260905150557 | 48 | 0 | 0.0 | 0.0 | 0.00 | 0.00 | 0.00 | 81 | 1013.5 |
| 20260905150057 | 48 | 0 | 0.0 | 0.0 | 0.00 | 0.00 | 0.00 | 80 | 1014.3 |
| 20260905145557 | 48 | 0 | 0.0 | 0.0 | 0.00 | 0.00 | 0.00 | 81 | 1013.5 |
| 20260905145057 | 48 | 0 | 0.0 | 0.0 | 0.00 | 0.00 | 0.00 | 80 | 1013.5 |
| 20260905144557 | 48 | 0 | 0.0 | 0.0 | 0.00 | 0.00 | 0.00 | 80 | 1013.5 |
| 20260905144056 | 48 | 0 | 0.0 | 0.0 | 0.00 | 0.00 | 0.00 | 81 | 1013.4 |
| 20260905143556 | 48 | 0 | 0.0 | 0.0 | 0.00 | 0.00 | 0.00 | 80 | 1013.4 |
| 20260905143056 | 48 | 0 | 0.0 | 0.0 | 0.00 | 0.00 | 0.00 | 81 | 1013.4 |
| 20260905142556 | 48 | 0 | 0.0 | 0.0 | 0.00 | 0.00 | 0.00 | 81 | 1013.4 |
| 20260905142056 | 48 | 0 | 0.0 | 0.0 | 0.00 | 0.00 | 0.00 | 81 | 1013.4 |
| 20260905141558 | 48 | 0 | 0.0 | 0.0 | 0.00 | 0.00 | 0.00 | 81 | 1013.3 |
| 20260905141056 | 48 | 0 | 0.0 | 0.0 | 0.00 | 0.00 | 0.00 | 81 | 1014.4 |
| 20260905140647 | 48 | 0 | 0.0 | 0.0 | 0.00 | 0.00 | 0.00 | 81 | 1013.3 |
| 20260905140556 | 48 | 0 | 0.0 | 0.0 | 0.00 | 0.00 | 0.00 | 81 | 1013.3 |
| 20260905140056 | 48 | 0 | 0.0 | 0.0 | 0.00 | 0.00 | 0.00 | 81 | 1014.1 |
| 20260905135556 | 48 | 0 | 0.0 | 0.0 | 0.00 | 0.00 | 0.00 | 81 | 1013.2 |
| 20260905135056 | 48 | 0 | 0.0 | 0.0 | 0.00 | 0.00 | 0.00 | 81 | 1013.2 |
| 20260905134557 | 48 | 0 | 0.0 | 0.0 | 0.00 | 0.00 | 0.00 | 81 | 1013.2 |
| 20260905134056 | 48 | 0 | 0.0 | 0.0 | 0.00 | 0.00 | 0.00 | 81 | 1013.6 |
| 20260905133556 | 48 | 0 | 0.0 | 0.0 | 0.00 | 0.00 | 0.00 | 81 | 1013.1 |
| 20260905133056 | 48 | 0 | 0.0 | 0.0 | 0.00 | 0.00 | 0.00 | 81 | 1013.1 |
| 20260905132556 | 48 | 0 | 0.0 | 0.0 | 0.00 | 0.00 | 0.00 | 81 | 1013.1 |
| 20260905132056 | 48 | 0 | 0.0 | 0.0 | 0.00 | 0.00 | 0.00 | 80 | 1013.5 |
| 20260905131556 | 48 | 0 | 0.0 | 0.0 | 0.00 | 0.00 | 0.00 | 81 | 1013.1 |
| 20260905131056 | 48 | 0 | 0.0 | 0.0 | 0.00 | 0.00 | 0.00 | 80 | 1014.3 |
| 20260905130556 | 48 | 0 | 0.0 | 0.0 | 0.00 | 0.00 | 0.00 | 80 | 1013.1 |
| 20260905130056 | 48 | 0 | 0.0 | 0.0 | 0.00 | 0.00 | 0.00 | 80 | 1013.5 |
| 20260905125556 | 48 | 0 | 0.0 | 0.0 | 0.00 | 0.00 | 0.00 | 80 | 1013.1 |
| 20260905125056 | 48 | 0 | 0.0 | 0.0 | 0.00 | 0.00 | 0.00 | 80 | 1013.1 |
| 20260905124556 | 48 | 0 | 0.0 | 0.0 | 0.00 | 0.00 | 0.00 | 80 | 1013.0 |
| 20260905124056 | 48 | 0 | 0.0 | 0.0 | 0.00 | 0.00 | 0.00 | 80 | 1013.4 |
| 20260905123556 | 48 | 0 | 0.0 | 0.0 | 0.00 | 0.00 | 0.00 | 80 | 1013.1 |
| 20260905123056 | 48 | 0 | 0.0 | 0.0 | 0.00 | 0.00 | 0.00 | 80 | 1013.5 |
| 20260905122556 | 48 | 0 | 0.0 | 0.0 | 0.00 | 0.00 | 0.00 | 80 | 1013.0 |
| 20260905122056 | 48 | 0 | 0.0 | 0.0 | 0.00 | 0.00 | 0.00 | 80 | 1013.3 |
| 20260905121556 | 48 | 0 | 0.0 | 0.0 | 0.00 | 0.00 | 0.00 | 80 | 1013.1 |
| 20260905121056 | 48 | 0 | 0.0 | 0.0 | 0.00 | 0.00 | 0.00 | 80 | 1013.0 |
| 20260905120556 | 48 | 0 | 0.0 | 0.0 | 0.00 | 0.00 | 0.00 | 80 | 1013.3 |
| 20260905120056 | 48 | 0 | 0.0 | 0.0 | 0.00 | 0.00 | 0.00 | 80 | 1013.4 |
| 20260905115556 | 48 | 0 | 0.0 | 0.0 | 0.00 | 0.00 | 0.00 | 80 | 1012.8 |
| 20260905115056 | 48 | 0 | 0.0 | 0.0 | 0.00 | 0.00 | 0.00 | 80 | 1012.8 |
| 20260905114556 | 49 | 0 | 0.0 | 0.0 | 0.00 | 0.00 | 0.00 | 80 | 1013.2 |
| 20260905114056 | 49 | 0 | 0.0 | 0.0 | 0.00 | 0.01 | 0.00 | 80 | 1012.8 |
| 20260905113556 | 48 | 0 | 0.0 | 0.0 | 0.00 | 0.01 | 0.00 | 80 | 1012.8 |
| 20260905113056 | 48 | 0 | 0.0 | 0.0 | 0.00 | 0.01 | 0.00 | 80 | 1013.6 |
| 20260905112556 | 48 | 0 | 0.0 | 0.0 | 0.00 | 0.01 | 0.00 | 80 | 1012.7 |
| 20260905112056 | 48 | 0 | 0.0 | 0.0 | 0.00 | 0.01 | 0.00 | 80 | 1012.8 |
| 20260905111556 | 48 | 0 | 0.0 | 0.0 | 0.00 | 0.01 | 0.00 | 80 | 1013.2 |
| 20260905111057 | 48 | 0 | 0.0 | 0.0 | 0.00 | 0.01 | 0.00 | 80 | 1013.4 |
| 20260905110556 | 48 | 0 | 0.0 | 0.0 | 0.00 | 0.01 | 0.00 | 80 | 1012.8 |
| 20260905110056 | 48 | 0 | 0.0 | 0.0 | 0.00 | 0.01 | 0.00 | 80 | 1013.7 |
| 20260905105556 | 49 | 0 | 0.0 | 0.0 | 0.00 | 0.01 | 0.00 | 80 | 1012.8 |
| 20260905105056 | 48 | 0 | 0.0 | 0.0 | 0.00 | 0.01 | 0.00 | 80 | 1012.8 |
| 20260905104556 | 49 | 0 | 0.0 | 0.0 | 0.00 | 0.01 | 0.00 | 80 | 1013.2 |
| 20260905104056 | 48 | 0 | 0.0 | 0.0 | 0.00 | 0.02 | 0.00 | 80 | 1012.8 |
| 20260905103556 | 48 | 0 | 0.0 | 0.0 | 0.00 | 0.02 | 0.00 | 80 | 1012.8 |
| 20260905103056 | 48 | 0 | 0.0 | 0.0 | 0.00 | 0.02 | 0.00 | 80 | 1013.6 |
| 20260905102556 | 48 | 0 | 0.0 | 0.0 | 0.00 | 0.02 | 0.00 | 80 | 1012.8 |
| 20260905102056 | 48 | 0 | 0.0 | 0.0 | 0.00 | 0.02 | 0.00 | 80 | 1012.8 |
| 20260905101556 | 48 | 0 | 0.0 | 0.0 | 0.00 | 0.02 | 0.00 | 80 | 1013.7 |
| 20260905101056 | 48 | 0 | 0.0 | 0.0 | 0.00 | 0.02 | 0.00 | 80 | 1013.2 |
| 20260905100556 | 48 | 0 | 0.0 | 0.0 | 0.00 | 0.02 | 0.00 | 80 | 1013.3 |
| 20260905100056 | 48 | 0 | 0.0 | 0.0 | 0.00 | 0.02 | 0.00 | 80 | 1013.5 |
| 20260905095556 | 48 | 0 | 0.0 | 0.0 | 0.00 | 0.02 | 0.00 | 80 | 1012.8 |
| 20260905094556 | 48 | 0 | 0.0 | 0.0 | 0.00 | 0.02 | 0.00 | 79 | 1013.2 |
| 20260905094056 | 48 | 0 | 0.0 | 0.0 | 0.00 | 0.03 | 0.00 | 79 | 1013.0 |
| 20260905093556 | 48 | 0 | 0.0 | 0.0 | 0.00 | 0.03 | 0.00 | 79 | 1012.8 |
| 20260905093056 | 48 | 0 | 0.0 | 0.0 | 0.00 | 0.03 | 0.00 | 79 | 1013.2 |
| 20260905092556 | 48 | 0 | 0.0 | 0.0 | 0.00 | 0.03 | 0.00 | 78 | 1012.8 |
| 20260905092056 | 48 | 0 | 0.0 | 0.0 | 0.00 | 0.03 | 0.00 | 79 | 1012.8 |
| 20260905091556 | 48 | 0 | 0.0 | 0.0 | 0.00 | 0.03 | 0.00 | 79 | 1013.1 |
| 20260905091056 | 48 | 0 | 0.0 | 0.0 | 0.00 | 0.03 | 0.00 | 79 | 1013.3 |
| 20260905090556 | 48 | 0 | 0.0 | 0.0 | 0.00 | 0.03 | 0.00 | 79 | 1012.7 |
| 20260905090056 | 48 | 0 | 0.0 | 0.0 | 0.00 | 0.03 | 0.00 | 81 | 1012.7 |
| 20260905085556 | 48 | 0 | 0.0 | 0.0 | 0.00 | 0.03 | 0.00 | 80 | 1012.8 |
| 20260905085056 | 48 | 0 | 0.0 | 0.0 | 0.00 | 0.03 | 0.00 | 80 | 1012.7 |
| 20260905084556 | 48 | 0 | 0.0 | 0.0 | 0.00 | 0.03 | 0.00 | 80 | 1012.7 |
| 20260905084056 | 48 | 0 | 0.0 | 0.0 | 0.00 | 0.04 | 0.00 | 80 | 1012.7 |
| 20260905083556 | 48 | 0 | 0.0 | 0.0 | 0.00 | 0.04 | 0.00 | 80 | 1013.1 |
| 20260905083056 | 48 | 0 | 0.0 | 0.0 | 0.00 | 0.04 | 0.00 | 80 | 1012.7 |
| 20260905082556 | 48 | 0 | 0.0 | 0.0 | 0.00 | 0.04 | 0.00 | 80 | 1012.6 |
| 20260905082056 | 48 | 0 | 0.0 | 0.0 | 0.00 | 0.04 | 0.00 | 80 | 1012.6 |
| 20260905081556 | 48 | 0 | 0.0 | 0.0 | 0.00 | 0.04 | 0.00 | 80 | 1012.6 |
| 20260905081056 | 48 | 0 | 0.0 | 0.0 | 0.00 | 0.04 | 0.00 | 80 | 1013.4 |
| 20260905080556 | 48 | 0 | 0.0 | 0.0 | 0.00 | 0.04 | 0.00 | 80 | 1012.5 |
| 20260905080056 | 48 | 0 | 0.0 | 0.0 | 0.00 | 0.04 | 0.00 | 80 | 1013.2 |
| 20260905075556 | 48 | 0 | 0.0 | 0.0 | 0.00 | 0.04 | 0.00 | 80 | 1012.6 |
| 20260905075056 | 48 | 0 | 0.0 | 0.0 | 0.00 | 0.04 | 0.00 | 80 | 1012.8 |
| 20260905074556 | 48 | 0 | 0.0 | 0.0 | 0.00 | 0.04 | 0.00 | 80 | 1012.4 |
| 20260905074146 | 48 | 0 | 0.0 | 0.0 | 0.00 | 0.04 | 0.00 | 80 | 1012.7 |
| 20260905074056 | 48 | 0 | 0.0 | 0.0 | 0.00 | 0.04 | 0.00 | 80 | 1012.7 |
| 20260905073556 | 48 | 0 | 0.0 | 3.0 | 0.00 | 0.04 | 0.00 | 80 | 1012.7 |
| 20260905073056 | 48 | 116 | 0.0 | 3.0 | 0.00 | 0.04 | 0.00 | 80 | 1012.8 |
| 20260905072556 | 48 | 105 | 0.0 | 3.0 | 0.00 | 0.04 | 0.00 | 80 | 1012.4 |
| 20260905072056 | 48 | 0 | 0.0 | 0.0 | 0.00 | 0.04 | 0.00 | 80 | 1012.6 |
| 20260905071556 | 48 | 200 | 0.0 | 0.0 | 0.00 | 0.04 | 0.00 | 80 | 1012.4 |
| 20260905071056 | 48 | 0 | 0.0 | 0.0 | 0.00 | 0.04 | 0.00 | 80 | 1012.3 |
| 20260905070556 | 48 | 0 | 0.0 | 1.0 | 0.00 | 0.04 | 0.00 | 80 | 1012.3 |
| 20260905070057 | 48 | 306 | 0.0 | 1.0 | 0.00 | 0.04 | 0.00 | 80 | 1012.3 |
| 20260905065556 | 48 | 306 | 0.0 | 1.0 | 0.00 | 0.04 | 0.00 | 81 | 1013.3 |
| 20260905065056 | 48 | 0 | 0.0 | 0.0 | 0.00 | 0.04 | 0.00 | 80 | 1012.2 |
| 20260905064556 | 48 | 357 | 0.0 | 0.0 | 0.00 | 0.04 | 0.00 | 81 | 1012.6 |
| 20260905064056 | 48 | 0 | 0.0 | 1.0 | 0.00 | 0.04 | 0.00 | 81 | 1011.9 |
| 20260905063556 | 48 | 0 | 0.0 | 1.0 | 0.00 | 0.04 | 0.00 | 80 | 1012.1 |
| 20260905063056 | 48 | 357 | 0.0 | 1.0 | 0.00 | 0.04 | 0.00 | 81 | 1011.9 |
| 20260905062647 | 48 | 0 | 0.0 | 2.0 | 0.00 | 0.04 | 0.00 | 81 | 1011.9 |
| 20260905062556 | 48 | 0 | 0.0 | 2.0 | 0.00 | 0.04 | 0.00 | 81 | 1011.9 |
| 20260905062056 | 48 | 0 | 0.0 | 2.0 | 0.00 | 0.04 | 0.00 | 81 | 1011.9 |
| 20260905061556 | 48 | 100 | 0.0 | 2.0 | 0.00 | 0.04 | 0.00 | 81 | 1012.4 |
| 20260905061056 | 48 | 357 | 0.0 | 0.0 | 0.00 | 0.04 | 0.00 | 81 | 1011.9 |
| 20260905060557 | 48 | 0 | 0.0 | 0.0 | 0.00 | 0.04 | 0.00 | 81 | 1012.6 |
| 20260905060056 | 48 | 0 | 0.0 | 0.0 | 0.00 | 0.04 | 0.00 | 81 | 1012.1 |
| 20260905055556 | 48 | 170 | 0.0 | 0.0 | 0.00 | 0.04 | 0.00 | 81 | 1012.1 |
| 20260905055056 | 48 | 0 | 0.0 | 0.0 | 0.00 | 0.04 | 0.00 | 81 | 1012.1 |
| 20260905054556 | 48 | 0 | 0.0 | 0.0 | 0.00 | 0.04 | 0.00 | 81 | 1012.1 |
| 20260905054055 | 48 | 170 | 0.0 | 0.0 | 0.00 | 0.04 | 0.00 | 81 | 1012.5 |
| 20260905053556 | 48 | 89 | 0.0 | 0.0 | 0.00 | 0.04 | 0.00 | 81 | 1012.6 |
| 20260905053055 | 48 | 89 | 0.0 | 0.0 | 0.00 | 0.04 | 0.00 | 81 | 1013.5 |
| 20260905052555 | 48 | 0 | 0.0 | 0.0 | 0.00 | 0.04 | 0.00 | 81 | 1012.3 |
| 20260905052055 | 48 | 0 | 0.0 | 1.0 | 0.00 | 0.04 | 0.00 | 81 | 1012.6 |
| 20260905051556 | 48 | 92 | 0.0 | 1.0 | 0.00 | 0.04 | 0.00 | 79 | 1012.3 |
| 20260905051055 | 48 | 88 | 0.0 | 1.0 | 0.00 | 0.04 | 0.00 | 81 | 1012.7 |
| 20260905050555 | 48 | 0 | 0.0 | 0.0 | 0.00 | 0.04 | 0.00 | 81 | 1012.1 |
| 20260905050055 | 48 | 357 | 0.0 | 0.0 | 0.00 | 0.04 | 0.00 | 81 | 1012.1 |
| 20260905045555 | 48 | 0 | 0.0 | 0.0 | 0.00 | 0.04 | 0.00 | 81 | 1013.1 |
| 20260905045056 | 48 | 16 | 0.0 | 0.0 | 0.00 | 0.04 | 0.00 | 81 | 1012.1 |
| 20260905044555 | 48 | 0 | 0.0 | 0.0 | 0.00 | 0.04 | 0.00 | 81 | 1012.2 |
| 20260905044055 | 48 | 0 | 0.0 | 0.0 | 0.00 | 0.06 | 0.00 | 81 | 1012.2 |
| 20260905043555 | 48 | 0 | 0.0 | 0.0 | 0.00 | 0.06 | 0.00 | 81 | 1012.6 |
| 20260905043055 | 48 | 0 | 0.0 | 0.0 | 0.00 | 0.06 | 0.00 | 81 | 1013.2 |
| 20260905042555 | 48 | 0 | 0.0 | 0.0 | 0.00 | 0.06 | 0.00 | 80 | 1012.1 |
| 20260905042055 | 49 | 0 | 0.0 | 0.0 | 0.00 | 0.06 | 0.00 | 81 | 1012.1 |
| 20260905041555 | 48 | 357 | 0.0 | 0.0 | 0.00 | 0.06 | 0.00 | 80 | 1011.9 |
| 20260905041055 | 49 | 0 | 0.0 | 0.0 | 0.00 | 0.06 | 0.00 | 81 | 1012.7 |
| 20260905040556 | 49 | 68 | 0.0 | 3.0 | 0.00 | 0.06 | 0.00 | 81 | 1012.1 |
| 20260905040056 | 48 | 107 | 0.0 | 3.0 | 0.00 | 0.06 | 0.00 | 80 | 1012.2 |
| 20260905035555 | 49 | 86 | 0.0 | 3.0 | 0.00 | 0.06 | 0.00 | 80 | 1011.7 |
| 20260905035055 | 49 | 12 | 0.0 | 2.0 | 0.00 | 0.06 | 0.00 | 80 | 1011.6 |
| 20260905034556 | 49 | 0 | 0.0 | 0.0 | 0.00 | 0.06 | 0.00 | 80 | 1012.3 |
| 20260905034056 | 49 | 0 | 0.0 | 0.0 | 0.00 | 0.08 | 0.00 | 80 | 1011.8 |
| 20260905033555 | 49 | 0 | 0.0 | 0.0 | 0.00 | 0.08 | 0.00 | 80 | 1011.5 |
| 20260905033055 | 49 | 0 | 0.0 | 1.0 | 0.00 | 0.08 | 0.00 | 80 | 1012.4 |
| 20260905032555 | 49 | 12 | 0.0 | 1.0 | 0.00 | 0.08 | 0.00 | 80 | 1011.5 |
| 20260905032055 | 49 | 12 | 0.0 | 1.0 | 0.00 | 0.08 | 0.00 | 80 | 1011.4 |
| 20260905031555 | 49 | 12 | 0.0 | 0.0 | 0.00 | 0.08 | 0.00 | 80 | 1011.3 |
| 20260905031055 | 49 | 98 | 0.0 | 2.0 | 0.00 | 0.08 | 0.00 | 80 | 1012.4 |
| 20260905030555 | 49 | 75 | 0.0 | 2.0 | 0.00 | 0.08 | 0.00 | 80 | 1012.3 |
| 20260905030055 | 49 | 107 | 0.0 | 2.0 | 0.00 | 0.08 | 0.00 | 80 | 1012.3 |
| 20260905025555 | 49 | 81 | 0.0 | 0.0 | 0.00 | 0.08 | 0.00 | 80 | 1011.8 |
| 20260905025055 | 49 | 81 | 0.0 | 0.0 | 0.00 | 0.08 | 0.00 | 80 | 1012.1 |
| 20260905024555 | 49 | 81 | 0.0 | 1.0 | 0.00 | 0.08 | 0.00 | 80 | 1011.3 |
| 20260905024055 | 49 | 81 | 0.0 | 1.0 | 0.00 | 0.12 | 0.00 | 80 | 1011.6 |
| 20260905023555 | 49 | 70 | 0.0 | 1.0 | 0.00 | 0.12 | 0.00 | 79 | 1011.6 |
| 20260905023055 | 49 | 0 | 0.0 | 3.0 | 0.00 | 0.12 | 0.00 | 80 | 1011.4 |
| 20260905022555 | 49 | 98 | 0.0 | 3.0 | 0.00 | 0.12 | 0.00 | 78 | 1011.4 |
| 20260905022055 | 49 | 107 | 0.0 | 3.0 | 0.00 | 0.12 | 0.00 | 79 | 1011.8 |
| 20260905021555 | 49 | 110 | 0.0 | 1.0 | 0.00 | 0.12 | 0.00 | 79 | 1012.3 |
| 20260905021055 | 49 | 0 | 0.0 | 0.0 | 0.00 | 0.12 | 0.00 | 78 | 1011.3 |
| 20260905020555 | 50 | 42 | 0.0 | 3.0 | 0.00 | 0.12 | 0.00 | 78 | 1011.3 |
| 20260905020055 | 50 | 119 | 0.0 | 3.0 | 0.00 | 0.12 | 0.00 | 78 | 1011.3 |
| 20260905015555 | 50 | 102 | 0.0 | 3.0 | 0.00 | 0.12 | 0.00 | 78 | 1011.2 |
| 20260905015055 | 50 | 347 | 0.0 | 2.0 | 0.00 | 0.12 | 0.00 | 78 | 1011.3 |